Location: Moscow
(55.7500°N, 37.5830°E)
Time: 11:20:30
(UTC+03:00)

Explorer 7 - Pass Details

Date: 06 December 2021
Orbit: 483 x 674 km, 50.3° (Epoch: 19 January)

Event Time Altitude Azimuth Distance (km) Brightness Sun altitude
Rises 10:05:08 0° 271° (W) 2,701 10.0 6.6°
Reaches altitude 10° 10:07:42 10° 258° (WSW) 1,772 9.3 6.8°
Maximum altitude 10:10:57 24° 204° (SSW) 1,097 9.0 7.0°
Drops below altitude 10° 10:14:03 10° 149° (SSE) 1,699 13.0 7.2°
Sets 10:16:28 0° 135° (SE) 2,560 12.0 7.4°
